When you browse on this site, cookies collect data to enhance your experience and personalize the content and advertising you see.
Visit our Privacy Policy to learn more. By continuing to use the site, you agree to this use of cookies and data.
  • In Hungary
  • List of Countries
  • For 7 days
  • Water Temperature
  • Satellite Maps
  • Weather Map
  • News
  • Weather Widgets
  • user-avatar
    Login

    Hourly Weather Kabwe

    Today, 16 January, Wednesday

    Time Temperature Precipitation Wind Pressure Humidity
    00:00 +20°C° 0 mm 1 mps 661 mmHg 96%
    01:00 +20°C° 0 mm 1 mps 661 mmHg 96%
    02:00 +19°C° 0 mm 2 mps 661 mmHg 97%
    03:00 +19°C° 0.1 mm 2 mps 661 mmHg 97%
    04:00 +19°C° 0.1 mm 2 mps 661 mmHg 97%
    05:00 +19°C° 0.1 mm 2 mps 661 mmHg 97%
    06:00 +19°C° 0 mm 2 mps 662 mmHg 95%
    07:00 +20°C° 0 mm 2 mps 662 mmHg 94%
    08:00 +20°C° 0 mm 2 mps 662 mmHg 93%
    09:00 +22°C° 0.1 mm 3 mps 662 mmHg 85%
    10:00 +25°C° 0.1 mm 3 mps 663 mmHg 77%
    11:00 +26°C° 0.1 mm 3 mps 663 mmHg 69%
    12:00 +27°C° 0.6 mm 3 mps 662 mmHg 70%
    13:00 +27°C° 0.6 mm 3 mps 662 mmHg 71%
    14:00 +27°C° 0.6 mm 3 mps 661 mmHg 72%
    15:00 +27°C° 0.5 mm 3 mps 661 mmHg 75%
    16:00 +26°C° 0.5 mm 2 mps 660 mmHg 78%
    17:00 +26°C° 0.5 mm 2 mps 660 mmHg 81%
    18:00 +24°C° 0.5 mm 1 mps 660 mmHg 85%
    19:00 +23°C° 0.5 mm 1 mps 660 mmHg 90%
    20:00 +19°C° 0.5 mm 0 mps 660 mmHg 94%
    21:00 +19°C° 0.2 mm 0 mps 660 mmHg 94%
    22:00 +21°C° 0.2 mm 1 mps 660 mmHg 94%
    23:00 +21°C° 0.2 mm 1 mps 661 mmHg 94%

    Tomorrow, 17 January, Thursday

    Time Temperature Precipitation Wind Pressure Humidity
    00:00 +20°C° 0.1 mm 1 mps 660 mmHg 95%
    01:00 +20°C° 0.1 mm 1 mps 660 mmHg 96%
    02:00 +19°C° 0.1 mm 2 mps 660 mmHg 97%
    03:00 +19°C° 0.1 mm 2 mps 660 mmHg 97%
    04:00 +19°C° 0.1 mm 2 mps 659 mmHg 97%
    05:00 +19°C° 0.1 mm 2 mps 659 mmHg 97%
    06:00 +19°C° 0.1 mm 2 mps 660 mmHg 96%
    07:00 +19°C° 0.1 mm 2 mps 660 mmHg 95%
    08:00 +20°C° 0.1 mm 3 mps 661 mmHg 94%
    09:00 +21°C° 0.3 mm 3 mps 661 mmHg 91%
    10:00 +22°C° 0.3 mm 3 mps 661 mmHg 88%
    11:00 +24°C° 0.3 mm 3 mps 661 mmHg 84%
    12:00 +25°C° 0.6 mm 3 mps 661 mmHg 82%
    13:00 +25°C° 0.6 mm 3 mps 660 mmHg 80%
    14:00 +26°C° 0.6 mm 3 mps 660 mmHg 78%
    15:00 +25°C° 0.3 mm 3 mps 659 mmHg 81%
    16:00 +25°C° 0.3 mm 2 mps 659 mmHg 83%
    17:00 +25°C° 0.3 mm 2 mps 659 mmHg 85%
    18:00 +24°C° 1.2 mm 2 mps 659 mmHg 88%
    19:00 +23°C° 1.2 mm 1 mps 659 mmHg 92%
    20:00 +21°C° 1.2 mm 1 mps 659 mmHg 95%
    21:00 +21°C° 1.2 mm 1 mps 660 mmHg 95%
    22:00 +21°C° 1.2 mm 1 mps 660 mmHg 95%
    23:00 +21°C° 1.2 mm 1 mps 660 mmHg 95%

    Day after tomorrow, 18 January, Friday

    Time Temperature Precipitation Wind Pressure Humidity
    00:00 +21°C° 0.4 mm 1 mps 660 mmHg 95%
    01:00 +20°C° 0.4 mm 1 mps 659 mmHg 96%
    02:00 +20°C° 0.4 mm 1 mps 659 mmHg 96%
    03:00 +19°C° 0 mm 2 mps 659 mmHg 96%
    04:00 +19°C° 0 mm 2 mps 659 mmHg 97%
    05:00 +19°C° 0 mm 2 mps 659 mmHg 97%
    06:00 +19°C° 0 mm 2 mps 659 mmHg 96%
    07:00 +20°C° 0 mm 2 mps 660 mmHg 94%
    08:00 +20°C° 0 mm 3 mps 660 mmHg 93%
    09:00 +21°C° 0.4 mm 3 mps 660 mmHg 90%
    10:00 +22°C° 0.4 mm 3 mps 661 mmHg 86%
    11:00 +23°C° 0.4 mm 4 mps 661 mmHg 83%
    12:00 +25°C° 0.8 mm 3 mps 660 mmHg 84%
    13:00 +25°C° 0.8 mm 3 mps 660 mmHg 84%
    14:00 +25°C° 0.8 mm 3 mps 659 mmHg 84%
    15:00 +24°C° 0.5 mm 3 mps 659 mmHg 86%
    16:00 +24°C° 0.5 mm 3 mps 658 mmHg 87%
    17:00 +24°C° 0.5 mm 3 mps 658 mmHg 88%
    18:00 +22°C° 0.8 mm 3 mps 658 mmHg 90%
    19:00 +21°C° 0.8 mm 3 mps 659 mmHg 92%
    20:00 +20°C° 0.8 mm 3 mps 659 mmHg 94%
    21:00 +20°C° 0.4 mm 3 mps 659 mmHg 95%
    22:00 +20°C° 0.4 mm 3 mps 660 mmHg 95%
    23:00 +19°C° 0.4 mm 3 mps 660 mmHg 95%

    19 January, Saturday

    Time Temperature Precipitation Wind Pressure Humidity
    00:00 +19°C° 0.2 mm 3 mps 659 mmHg 95%
    01:00 +19°C° 0.2 mm 3 mps 659 mmHg 96%
    02:00 +19°C° 0.2 mm 3 mps 658 mmHg 96%
    03:00 +19°C° 1.4 mm 3 mps 658 mmHg 96%
    04:00 +19°C° 1.4 mm 4 mps 658 mmHg 96%
    05:00 +19°C° 1.4 mm 4 mps 659 mmHg 97%
    06:00 +19°C° 2.2 mm 4 mps 659 mmHg 97%
    07:00 +19°C° 2.2 mm 4 mps 659 mmHg 96%
    08:00 +19°C° 2.2 mm 4 mps 660 mmHg 96%
    09:00 +20°C° 0.3 mm 4 mps 660 mmHg 92%
    10:00 +21°C° 0.3 mm 4 mps 660 mmHg 89%
    11:00 +22°C° 0.3 mm 5 mps 660 mmHg 85%
    12:00 +23°C° 0.2 mm 5 mps 660 mmHg 81%
    13:00 +23°C° 0.2 mm 5 mps 660 mmHg 78%
    14:00 +25°C° 0.2 mm 5 mps 659 mmHg 74%
    15:00 +25°C° 0.2 mm 4 mps 659 mmHg 77%
    16:00 +23°C° 0.2 mm 4 mps 659 mmHg 79%
    17:00 +22°C° 0.2 mm 3 mps 658 mmHg 82%
    18:00 +22°C° 0 mm 3 mps 659 mmHg 85%
    19:00 +21°C° 0 mm 3 mps 659 mmHg 88%
    20:00 +20°C° 0 mm 2 mps 659 mmHg 92%
    21:00 +20°C° 0 mm 2 mps 659 mmHg 90%
    22:00 +20°C° 0 mm 2 mps 660 mmHg 89%
    23:00 +20°C° 0 mm 2 mps 660 mmHg 88%

    20 January, Sunday

    Time Temperature Precipitation Wind Pressure Humidity
    00:00 +19°C° 0.4 mm 3 mps 659 mmHg 90%
    01:00 +19°C° 0.4 mm 3 mps 659 mmHg 92%
    02:00 +19°C° 0.4 mm 3 mps 659 mmHg 94%
    03:00 +19°C° 2 mm 3 mps 659 mmHg 95%
    04:00 +19°C° 2 mm 3 mps 659 mmHg 96%
    05:00 +19°C° 2 mm 3 mps 659 mmHg 96%
    06:00 +19°C° 2.1 mm 3 mps 659 mmHg 96%
    07:00 +19°C° 2.1 mm 3 mps 660 mmHg 96%
    08:00 +19°C° 2.1 mm 3 mps 660 mmHg 96%
    09:00 +19°C° 1.3 mm 3 mps 660 mmHg 96%
    10:00 +19°C° 1.3 mm 3 mps 660 mmHg 96%
    11:00 +19°C° 1.3 mm 4 mps 660 mmHg 96%
    12:00 +20°C° 0.3 mm 3 mps 660 mmHg 94%
    13:00 +21°C° 0.3 mm 3 mps 659 mmHg 92%
    14:00 +21°C° 0.3 mm 3 mps 659 mmHg 91%
    15:00 +21°C° 0.8 mm 2 mps 659 mmHg 91%
    16:00 +21°C° 0.8 mm 2 mps 658 mmHg 92%
    17:00 +21°C° 0.8 mm 2 mps 658 mmHg 93%
    18:00 +21°C° 1 mm 2 mps 659 mmHg 94%
    19:00 +20°C° 1 mm 2 mps 659 mmHg 94%
    20:00 +20°C° 1 mm 2 mps 660 mmHg 95%
    21:00 +20°C° 0.8 mm 2 mps 660 mmHg 95%
    22:00 +20°C° 0.8 mm 2 mps 660 mmHg 95%
    23:00 +20°C° 0.8 mm 2 mps 661 mmHg 95%

    21 January, Monday

    Time Temperature Precipitation Wind Pressure Humidity
    00:00 +20°C° 0.4 mm 2 mps 660 mmHg 96%
    01:00 +19°C° 0.4 mm 2 mps 660 mmHg 96%
    02:00 +19°C° 0.4 mm 2 mps 660 mmHg 96%
    03:00 +19°C° 0.1 mm 2 mps 660 mmHg 97%
    04:00 +19°C° 0.1 mm 2 mps 660 mmHg 97%
    05:00 +19°C° 0.1 mm 1 mps 660 mmHg 98%
    06:00 +19°C° 0 mm 2 mps 660 mmHg 96%
    07:00 +20°C° 0 mm 2 mps 661 mmHg 94%
    08:00 +21°C° 0 mm 2 mps 661 mmHg 93%
    09:00 +23°C° 0.5 mm 2 mps 661 mmHg 87%
    10:00 +25°C° 0.5 mm 2 mps 661 mmHg 81%
    11:00 +26°C° 0.5 mm 2 mps 661 mmHg 76%
    12:00 +26°C° 1 mm 2 mps 661 mmHg 78%
    13:00 +26°C° 1 mm 2 mps 660 mmHg 80%
    14:00 +26°C° 1 mm 2 mps 659 mmHg 82%
    15:00 +26°C° 0.4 mm 2 mps 659 mmHg 82%
    16:00 +26°C° 0.4 mm 2 mps 659 mmHg 81%
    17:00 +26°C° 0.4 mm 2 mps 659 mmHg 80%
    18:00 +25°C° 0.8 mm 1 mps 659 mmHg 85%
    19:00 +23°C° 0.8 mm 1 mps 659 mmHg 89%
    20:00 +22°C° 0.8 mm 1 mps 660 mmHg 94%
    21:00 +22°C° 1.6 mm 1 mps 660 mmHg 94%
    22:00 +21°C° 1.6 mm 1 mps 660 mmHg 93%
    23:00 +21°C° 1.6 mm 1 mps 660 mmHg 93%
    Show more